Weather History for West Palm Beach, FL

Change the Weather History Date:

Monday, February 25, 2013

  Actual Average Record
Temperature  
Mean Temperature 76 °F 69 °F  
Max Temperature 84 °F 77 °F 90 °F (1928)
Min Temperature 67 °F 60 °F 36 °F (1989)
Degree Days  
Heating Degree Days 0 1  
Month to date heating degree days 34 45  
Since 1 July heating degree days 82 202  
Cooling Degree Days 11 5  
Month to date cooling degree days 138 113  
Year to date cooling degree days 359 221  
Growing Degree Days 25 (Base 50)    
Moisture  
Dew Point 69 °F    
Average Humidity 78    
Maximum Humidity 90    
Minimum Humidity 65    
Precipitation  
Precipitation T in 0.12 in 2.60 in (1893)
Month to date precipitation 1.96 2.47  
Year to date precipitation 2.75 5.60  
Snow  
Snow 0.00 in - - ()
Month to date snowfall 0.0  
Since 1 July snowfall 0.0  
Snow Depth 0.00 in    
Sea Level Pressure  
Sea Level Pressure 29.87 in    
Wind  
Wind Speed 9 mph (South)    
Max Wind Speed 22 mph    
Max Gust Speed 29 mph    
Visibility 10 miles    
Events Rain    
T = Trace of Precipitation, MM = Missing Value Source: NWS Daily Summary

Daily Weather History Graph

Daily Weather History Graph

Search for Another Location

Airport:

Trip Planner

Search our weather history database for the weather conditions in past years. The results will help you decide how hot, cold, wet, or windy it might be!

Date:

Astronomy

Feb. 25, 2013 Rise Set
Actual Time 6:47 AM EST 6:19 PM EST
Civil Twilight 6:24 AM EST 6:42 PM EST
Nautical Twilight 5:57 AM EST 7:09 PM EST
Astronomical Twilight 5:30 AM EST 7:36 PM EST
Moon 6:24 PM EST (2/25) 6:20 AM EST (2/25)
Length of Visible Light 12h 18m
Length of Day
11h 31m
Full, 100% of the Moon is Illuminated
Feb 25
Full
Feb 25
Full
Mar 4
Last Quarter
Mar 11
New
Mar 19
First Quarter

Hourly Weather History & Observations

Time (EST) Temp. Heat Index Dew Point Humidity Pressure Visibility Wind Dir Wind Speed Gust Speed Precip Events Conditions
12:53 AM 72.0 °F - 66.9 °F 84% 29.91 in 10.0 mi WSW 5.8 mph - N/A   Overcast
1:53 AM 72.0 °F - 68.0 °F 87% 29.89 in 10.0 mi WSW 5.8 mph - N/A   Overcast
2:53 AM 71.1 °F - 68.0 °F 90% 29.88 in 10.0 mi SW 3.5 mph - N/A   Overcast
3:53 AM 71.1 °F - 66.9 °F 87% 29.87 in 10.0 mi Calm Calm - N/A   Overcast
4:53 AM 71.1 °F - 66.9 °F 87% 29.87 in 10.0 mi Calm Calm - N/A   Overcast
5:53 AM 70.0 °F - 66.9 °F 90% 29.87 in 10.0 mi South 3.5 mph - N/A   Mostly Cloudy
6:53 AM 69.1 °F - 66.0 °F 90% 29.88 in 10.0 mi Calm Calm - N/A   Mostly Cloudy
7:53 AM 72.0 °F - 68.0 °F 87% 29.90 in 10.0 mi Calm Calm - N/A   Mostly Cloudy
8:53 AM 75.0 °F - 71.1 °F 87% 29.92 in 10.0 mi South 4.6 mph - N/A   Mostly Cloudy
9:53 AM 79.0 °F - 69.1 °F 72% 29.91 in 10.0 mi SSE 11.5 mph - N/A   Mostly Cloudy
10:35 AM 80.6 °F 83.9 °F 69.8 °F 70% 29.91 in 10.0 mi SE 12.7 mph - N/A   Mostly Cloudy
10:53 AM 80.1 °F 83.6 °F 71.1 °F 74% 29.91 in 10.0 mi SSE 12.7 mph - N/A   Mostly Cloudy
11:36 AM 82.4 °F 86.3 °F 69.8 °F 66% 29.89 in 10.0 mi SSE 16.1 mph - N/A   Mostly Cloudy
11:53 AM 82.0 °F 85.9 °F 70.0 °F 67% 29.89 in 10.0 mi South 15.0 mph 20.7 mph N/A   Mostly Cloudy
12:53 PM 82.9 °F 87.0 °F 70.0 °F 65% 29.87 in 10.0 mi SSE 13.8 mph - N/A   Mostly Cloudy
1:53 PM 82.0 °F 85.9 °F 70.0 °F 67% 29.84 in 10.0 mi SSE 16.1 mph 24.2 mph N/A   Mostly Cloudy
2:39 PM 80.6 °F 83.9 °F 69.8 °F 70% 29.83 in 10.0 mi SSE 17.3 mph 25.3 mph N/A   Mostly Cloudy
2:53 PM 81.0 °F 84.4 °F 70.0 °F 69% 29.83 in 10.0 mi South 13.8 mph 26.5 mph N/A   Mostly Cloudy
3:16 PM 78.8 °F - 69.8 °F 74% 29.83 in 10.0 mi South 18.4 mph 26.5 mph N/A   Mostly Cloudy
3:53 PM 78.1 °F - 70.0 °F 76% 29.82 in 10.0 mi South 15.0 mph 23.0 mph 0.00 in Rain Light Rain
4:53 PM 79.0 °F - 69.1 °F 72% 29.82 in 10.0 mi SSE 16.1 mph 23.0 mph 0.00 in   Mostly Cloudy
5:53 PM 78.1 °F - 69.1 °F 74% 29.83 in 10.0 mi SSE 11.5 mph - N/A   Scattered Clouds
6:53 PM 77.0 °F - 70.0 °F 79% 29.83 in 10.0 mi SSE 12.7 mph 19.6 mph N/A   Scattered Clouds
7:53 PM 75.9 °F - 71.1 °F 85% 29.85 in 10.0 mi SSE 10.4 mph - N/A   Partly Cloudy
8:53 PM 75.9 °F - 71.1 °F 85% 29.85 in 10.0 mi SSE 9.2 mph - N/A   Partly Cloudy
9:53 PM 75.0 °F - 71.1 °F 87% 29.86 in 10.0 mi SSE 8.1 mph - N/A   Partly Cloudy
10:53 PM 75.0 °F - 71.1 °F 87% 29.85 in 10.0 mi SSE 9.2 mph - N/A   Partly Cloudy
11:53 PM 75.0 °F - 70.0 °F 84% 29.85 in 10.0 mi South 8.1 mph - N/A   Partly Cloudy